Simultaneous Nadir Overpasses (SNOs) Predictions

Prediction of SNOs between AQUA and GOES-15 Satellite Orbit:

Table of predicted SNOs for the next 14.0 days since TLE Epoch: 4/27/2024
Index Date Time (AQUA) AQUA Lat,Lon GOES-15 Lat,Lon Distance(km) Time Diff (sec)
1 04/27/2024 09:59:37 0.06, 61.81 -0.06, 61.38 49.65 80
2 04/29/2024 09:43:25 0.87, 65.78 -0.07, 61.42 496.37 80
3 04/29/2024 22:03:38 0.19, 60.89 0.06, 61.41 59.43 80
4 05/01/2024 21:47:25 -0.68, 64.85 0.06, 61.44 387.95 80
5 05/02/2024 10:07:46 -0.37, 59.93 -0.05, 61.47 175.42 80
6 05/04/2024 09:51:30 0.44, 63.91 -0.06, 61.51 272.57 80
7 05/04/2024 22:11:43 0.56, 59.01 0.04, 61.50 283.22 80
8 05/06/2024 21:55:25 -0.26, 63.00 0.04, 61.55 165.21 80
9 05/07/2024 10:15:44 -0.79, 58.08 -0.03, 61.57 397.62 80
10 05/09/2024 09:59:26 0.09, 62.07 -0.03, 61.62 50.89 80
